Imperial, NE

7:26 AM MST on February 12, 2016 (GMT -0700)
Imperial Municipal

Weather History for KIML - April, 2013

Change the Weather History Date:

Thursday, April 4, 2013

  Actual Average Record
Temperature  
Mean Temperature 46 °F 45 °F  
Max Temperature 67 °F 59 °F 86 °F (1929)
Min Temperature 25 °F 31 °F 10 °F (1945)
Degree Days  
Heating Degree Days 19 20  
Month to date heating degree days 90 82  
Cooling Degree Days 0 0  
Month to date cooling degree days 0 0  
Year to date cooling degree days 0 0  
Moisture  
Dew Point 30 °F    
Average Humidity 60    
Maximum Humidity 92    
Minimum Humidity 28    
Precipitation  
Precipitation 0.00 in 0.04 in 0.59 in (2012)
Sea Level Pressure  
Sea Level Pressure 30.11 in    
Wind  
Wind Speed 7 mph (SE)    
Max Wind Speed 16 mph    
Max Gust Speed 21 mph    
Visibility 10 miles    
Events      
T = Trace of Precipitation, MM = Missing Value Source: NWS Daily Summary

Daily Weather History Graph

Daily Weather History Graph

Search for Another Location

Airport or City:

Trip Planner

Search our weather history database for the weather conditions in past years. The results will help you decide how hot, cold, wet, or windy it might be!

Date:

Astronomy

Apr. 04, 2013 Rise Set
Actual Time 6:24 AM MDT 7:14 PM MDT
Civil Twilight 5:57 AM MDT 7:42 PM MDT
Nautical Twilight 5:24 AM MDT 8:15 PM MDT
Astronomical Twilight 4:50 AM MDT 8:49 PM MDT
Moon 2:54 AM MDT (4/4) 1:33 PM MDT (4/4)
Length of Visible Light 13h 45m
Length of Day
12h 49m
Waning Crescent, 33% of the Moon is Illuminated
Apr 4
Waning Crescent
Apr 10
New
Apr 18
First Quarter
Apr 25
Full
May 2
Last Quarter

Hourly Weather History & Observations

Time (MDT) Temp. Windchill Dew Point Humidity Pressure Visibility Wind Dir Wind Speed Gust Speed Precip Events Conditions
12:53 AM 33.1 °F 25.5 °F 28.0 °F 82% 30.17 in 10.0 mi South 9.2 mph - N/A   Clear
1:53 AM 32.0 °F 24.2 °F 28.0 °F 85% 30.15 in 10.0 mi South 9.2 mph - N/A   Clear
2:53 AM 30.9 °F 24.3 °F 27.0 °F 85% 30.12 in 10.0 mi South 6.9 mph - N/A   Mostly Cloudy
3:53 AM 28.9 °F 22.8 °F 27.0 °F 92% 30.12 in 10.0 mi SW 5.8 mph - N/A   Clear
4:53 AM 26.1 °F 21.9 °F 24.1 °F 92% 30.13 in 8.0 mi NNE 3.5 mph - N/A   Clear
5:53 AM 27.0 °F - 25.0 °F 92% 30.14 in 10.0 mi Calm Calm - N/A   Clear
6:53 AM 25.0 °F 19.3 °F 23.0 °F 92% 30.18 in 7.0 mi North 4.6 mph - N/A   Clear
7:53 AM 32.0 °F 27.5 °F 28.0 °F 85% 30.21 in 8.0 mi NNW 4.6 mph - N/A   Clear
8:53 AM 41.0 °F 35.2 °F 32.0 °F 70% 30.19 in 10.0 mi NNE 9.2 mph - N/A   Clear
9:53 AM 46.9 °F - 33.1 °F 59% 30.17 in 10.0 mi NE 11.5 mph - N/A   Clear
10:53 AM 54.0 °F - 34.0 °F 47% 30.17 in 10.0 mi East 8.1 mph - N/A   Clear
11:53 AM 59.0 °F - 34.0 °F 39% 30.14 in 10.0 mi Variable 6.9 mph - N/A   Clear
12:53 PM 60.1 °F - 34.0 °F 38% 30.12 in 10.0 mi Calm Calm - N/A   Unknown
1:53 PM 63.0 °F - 34.0 °F 34% 30.10 in 10.0 mi SW 3.5 mph - N/A   Clear
2:53 PM 64.0 °F - 32.0 °F 30% 30.08 in 10.0 mi Variable 3.5 mph - N/A   Clear
3:53 PM 66.0 °F - 33.1 °F 29% 30.06 in 10.0 mi South 5.8 mph - N/A   Clear
4:53 PM 66.9 °F - 32.0 °F 27% 30.05 in 10.0 mi SE 4.6 mph - N/A   Clear
5:53 PM 66.0 °F - 32.0 °F 28% 30.04 in 10.0 mi SE 10.4 mph - N/A   Clear
6:53 PM 61.0 °F - 32.0 °F 34% 30.06 in 10.0 mi SE 9.2 mph - N/A   Clear
7:53 PM 50.0 °F - 32.0 °F 50% 30.07 in 10.0 mi SE 8.1 mph - N/A   Clear
8:53 PM 45.0 °F 40.1 °F 32.0 °F 60% 30.08 in 10.0 mi SE 9.2 mph - N/A   Clear
9:53 PM 50.0 °F - 32.0 °F 50% 30.06 in 10.0 mi SE 15.0 mph - N/A   Clear
10:53 PM 50.0 °F - 30.9 °F 48% 30.04 in 10.0 mi SSE 15.0 mph - N/A   Clear
11:53 PM 45.0 °F 40.6 °F 30.9 °F 58% 30.03 in 10.0 mi SSE 8.1 mph - N/A   Clear